Hourly Data Report for July 18, 2004

SHERBROOKE A
QUEBEC

45°26'00.000" N
71°41'00.000" W
241.40 m
7028124
71610
YSC

Download Data

Hourly Data (July 2004)
Hourly Data Report for July 18, 2004
TIME
LST
Temp Definition
°C
Dew Point Definition
°C
Rel Hum Definition
%
Precip. Amount Definition
mm

Wind Dir Definition
10's deg

Wind Spd Definition
km/h
Visibility Definition
km
Stn Press Definition
kPa
Hmdx Definition


Wind Chill Definition


Weather Definition


00:00 14.5 13.9 96     0 12.9 98.64      
01:00 13.6 13.6 100     0 1.3 98.61      
02:00 13.0 12.7 98     0 5.6 98.63      
03:00 13.7 13.4 98   12 7 15.0 98.63      
04:00 13.2 12.8 97   8 7 12.9 98.68      
05:00 13.7 13.1 96   10 6 15.0 98.75      
06:00 14.9 14.5 97   8 4 1.8 98.78      
07:00 16.2 15.3 94   7 6 12.9 98.79     Cloudy
08:00 19.8 17.5 87   6 6 16.1 98.77     Mostly Cloudy
09:00 22.6 18.4 77   7 6 24.1 98.72 29   Mostly Cloudy
10:00 24.3 18.3 69   5 4 24.1 98.75 31   Mostly Cloudy
11:00 25.9 18.1 62   7 6 24.1 98.72 32   Mostly Cloudy
12:00 26.9 17.5 56   5 4 24.1 98.67 33   Mostly Cloudy
13:00 26.8 17.0 55   14 6 24.1 98.60 32   Mostly Cloudy
14:00 25.0 18.0 65   7 11 24.1 98.57 31   Mostly Cloudy
15:00 18.2 17.0 93   13 19 12.9 98.70     Thunderstorms,Moderate Rain Showers
16:00 18.1 17.6 97   4 6 12.9 98.54     Rain Showers
17:00 19.1 18.0 93   2 6 15.0 98.56      
18:00 19.3 18.3 94   4 6 15.0 98.57      
19:00 19.2 18.2 94   6 9 15.0 98.57      
20:00 18.1 17.0 93   5 7 15.0 98.59      
21:00 17.7 16.5 93   5 4 15.0 98.61      
22:00 17.4 16.4 94   6 6 15.0 98.59      
23:00 17.2 16.3 94   6 7 15.0 98.56     Rain

Notes on Data Quality.

Legend

  • E = Estimated
  • M = Missing
  • NA = Not Available*
  • [empty] = Indicates an unobserved value
Date modified: